DLH495 CYYZ-EDDM

Flight info

Callsign DLH495
Flight time N/A
Altitude 37000
Route VERDO7 IPTOS Q921 AGLUK DCT BAREE N747B LOMSI/M084F390 DCT 55N050W 57N040W 58N030W 58N020W DCT GOMUP/N0486F390 DCT GINGA DCT GODOS DCT BERGI DCT DOJOH DCT DODEN DCT TABUM DCT BOMBI T104 HAREM/N0471F350 T104 ELMOX/N0434F270 T104 ROKIL
Aircraft A359/H-SADE2E3GHIJ1J2J3J4J5M1P2RWXYZ/LB1D1

Departure

Time N/A
Airport Toronto Pearson International Airport (CYYZ)

Arrival

Time 2026-05-05 19:29
Airport Munich Airport (EDDM)
Time Latitude Longitude Altitude Speed Heading
2026-05-05 17:09 57.15816 -11.14482 37196 ft 511 kts 104°
2026-05-05 17:09 57.14968 -11.08119 37191 ft 510 kts 104°
2026-05-05 17:10 57.13270 -10.95456 37196 ft 509 kts 104°
2026-05-05 17:10 57.11561 -10.82818 37191 ft 509 kts 104°
2026-05-05 17:11 57.09839 -10.70192 37192 ft 508 kts 104°
2026-05-05 17:11 57.08106 -10.57587 37189 ft 509 kts 104°
2026-05-05 17:12 57.06358 -10.44979 37189 ft 509 kts 105°
2026-05-05 17:12 57.04598 -10.32386 37186 ft 509 kts 105°
2026-05-05 17:13 57.02825 -10.19799 37183 ft 509 kts 105°
2026-05-05 17:13 57.01041 -10.07237 37183 ft 509 kts 105°
2026-05-05 17:14 56.99241 -9.94693 37176 ft 508 kts 105°
2026-05-05 17:14 56.97383 -9.82193 37177 ft 507 kts 106°
2026-05-05 17:15 56.95502 -9.69732 37181 ft 507 kts 106°
2026-05-05 17:15 56.93620 -9.57304 37179 ft 506 kts 106°
2026-05-05 17:16 56.91452 -9.45045 37173 ft 506 kts 111°
2026-05-05 17:16 56.88961 -9.33010 37172 ft 506 kts 112°
2026-05-05 17:17 56.86409 -9.21024 37171 ft 506 kts 112°
2026-05-05 17:17 56.83861 -9.09124 37169 ft 506 kts 112°
2026-05-05 17:18 56.81296 -8.97178 37167 ft 506 kts 112°
2026-05-05 17:18 56.78719 -8.85228 37154 ft 506 kts 112°
2026-05-05 17:19 56.76134 -8.73310 37166 ft 505 kts 113°
2026-05-05 17:19 56.73541 -8.61420 37160 ft 505 kts 113°
2026-05-05 17:20 56.70931 -8.49525 37160 ft 505 kts 113°
2026-05-05 17:20 56.68314 -8.37666 37154 ft 505 kts 113°
2026-05-05 17:21 56.65683 -8.25812 37151 ft 505 kts 113°
2026-05-05 17:22 56.61721 -8.08081 37153 ft 505 kts 114°
2026-05-05 17:22 56.59066 -7.96289 37147 ft 505 kts 114°
2026-05-05 17:23 56.56399 -7.84503 37139 ft 504 kts 114°
2026-05-05 17:23 56.53745 -7.72841 37143 ft 504 kts 114°
2026-05-05 17:24 56.51061 -7.61113 37133 ft 504 kts 114°
2026-05-05 17:24 56.48369 -7.49418 37133 ft 504 kts 114°
2026-05-05 17:25 56.45662 -7.37720 37126 ft 504 kts 114°
2026-05-05 17:25 56.42941 -7.26024 37129 ft 504 kts 114°
2026-05-05 17:26 56.40212 -7.14359 37130 ft 504 kts 114°
2026-05-05 17:26 56.37473 -7.02714 37105 ft 504 kts 115°
2026-05-05 17:27 56.35168 -6.92964 37125 ft 503 kts 115°
2026-05-05 17:27 56.32415 -6.81376 37122 ft 503 kts 115°
2026-05-05 17:28 56.29649 -6.69795 37114 ft 503 kts 115°
2026-05-05 17:28 56.26875 -6.58241 37104 ft 503 kts 115°
2026-05-05 17:29 56.24088 -6.46696 37093 ft 503 kts 115°
2026-05-05 17:29 56.21290 -6.35166 37087 ft 503 kts 115°
2026-05-05 17:30 56.18479 -6.23644 37085 ft 503 kts 115°
2026-05-05 17:30 56.15683 -6.12245 37079 ft 503 kts 115°
2026-05-05 17:31 56.12857 -6.00781 37078 ft 501 kts 115°
2026-05-05 17:31 56.10031 -5.89378 37072 ft 501 kts 115°
2026-05-05 17:32 56.07199 -5.78008 37073 ft 501 kts 115°
2026-05-05 17:32 56.04351 -5.66635 37069 ft 500 kts 115°
2026-05-05 17:33 56.01493 -5.55282 37068 ft 500 kts 116°
2026-05-05 17:33 55.98630 -5.43961 37061 ft 500 kts 116°
2026-05-05 17:34 55.95757 -5.32663 37059 ft 500 kts 116°
2026-05-05 17:34 55.92869 -5.21364 37058 ft 500 kts 116°
2026-05-05 17:35 55.89976 -5.10101 37059 ft 500 kts 116°
2026-05-05 17:35 55.87069 -4.98840 37055 ft 500 kts 116°
2026-05-05 17:36 55.84151 -4.87592 37068 ft 500 kts 116°
2026-05-05 17:36 55.81226 -4.76373 37059 ft 501 kts 116°
2026-05-05 17:37 55.78284 -4.65148 37091 ft 500 kts 116°
2026-05-05 17:37 55.75339 -4.53965 37094 ft 500 kts 117°
2026-05-05 17:38 55.72380 -4.42788 37092 ft 500 kts 117°
2026-05-05 17:38 55.69416 -4.31640 37079 ft 499 kts 117°
2026-05-05 17:39 55.66446 -4.20531 37079 ft 498 kts 117°
2026-05-05 17:39 55.63475 -4.09468 37088 ft 498 kts 117°
2026-05-05 17:40 55.60487 -3.98401 37074 ft 498 kts 117°
2026-05-05 17:40 55.57498 -3.87380 37070 ft 498 kts 117°
2026-05-05 17:41 55.54494 -3.76358 37072 ft 498 kts 117°
2026-05-05 17:41 55.51479 -3.65347 37088 ft 498 kts 117°
2026-05-05 17:42 55.48456 -3.54359 37094 ft 498 kts 117°
2026-05-05 17:42 55.45428 -3.43409 37077 ft 497 kts 118°
2026-05-05 17:43 55.42398 -3.32498 37076 ft 495 kts 118°
2026-05-05 17:43 55.39367 -3.21638 37074 ft 494 kts 118°
2026-05-05 17:44 55.36346 -3.10868 37078 ft 494 kts 118°
2026-05-05 17:44 55.33298 -3.00048 37084 ft 494 kts 118°
2026-05-05 17:45 55.30223 -2.89184 37078 ft 494 kts 118°
2026-05-05 17:45 55.27177 -2.78476 37067 ft 494 kts 118°
2026-05-05 17:46 55.24104 -2.67719 37062 ft 493 kts 118°
2026-05-05 17:46 55.21025 -2.56991 37054 ft 492 kts 118°
2026-05-05 17:47 55.17942 -2.46299 37053 ft 491 kts 118°
2026-05-05 17:47 55.14858 -2.35651 37055 ft 491 kts 119°
2026-05-05 17:48 55.11764 -2.25019 37060 ft 491 kts 119°
2026-05-05 17:48 55.08662 -2.14404 37065 ft 491 kts 119°
2026-05-05 17:49 55.05545 -2.03791 37073 ft 491 kts 119°
2026-05-05 17:49 55.02424 -1.93209 37075 ft 491 kts 120°
2026-05-05 17:50 54.99287 -1.82622 37087 ft 491 kts 120°
2026-05-05 17:50 54.96149 -1.72077 37102 ft 490 kts 120°
2026-05-05 17:51 54.93003 -1.61553 37098 ft 490 kts 120°
2026-05-05 17:51 54.89847 -1.51041 37090 ft 490 kts 120°
2026-05-05 17:52 54.86686 -1.40561 37086 ft 490 kts 120°
2026-05-05 17:52 54.83513 -1.30086 37058 ft 490 kts 120°
2026-05-05 17:53 54.80339 -1.19654 37062 ft 490 kts 120°
2026-05-05 17:53 54.77144 -1.09200 37061 ft 490 kts 120°
2026-05-05 17:54 54.73947 -0.98786 37041 ft 489 kts 120°
2026-05-05 17:54 54.70761 -0.88450 37050 ft 486 kts 120°
2026-05-05 17:55 54.67570 -0.78144 37044 ft 485 kts 120°
2026-05-05 17:55 54.64375 -0.67873 37042 ft 485 kts 120°
2026-05-05 17:56 54.61192 -0.57681 37034 ft 485 kts 120°
2026-05-05 17:56 54.57960 -0.47374 37034 ft 485 kts 120°
2026-05-05 17:57 54.54763 -0.37224 37030 ft 485 kts 121°
2026-05-05 17:57 54.51536 -0.27023 37029 ft 485 kts 121°
2026-05-05 17:58 54.48301 -0.16840 37027 ft 484 kts 121°
2026-05-05 17:58 54.45073 -0.06719 37028 ft 482 kts 121°
2026-05-05 17:59 54.41844 0.03360 37017 ft 481 kts 121°
2026-05-05 17:59 54.38614 0.13401 37017 ft 480 kts 121°
2026-05-05 18:00 54.35907 0.21785 37015 ft 479 kts 121°
2026-05-05 18:00 54.32143 0.33393 37015 ft 479 kts 121°
2026-05-05 18:01 54.28891 0.43376 37008 ft 479 kts 121°
2026-05-05 18:01 54.25637 0.53329 37003 ft 479 kts 121°
2026-05-05 18:02 54.22377 0.63255 37003 ft 478 kts 121°
2026-05-05 18:02 54.19116 0.73147 36998 ft 477 kts 121°
2026-05-05 18:03 54.15856 0.82996 36999 ft 477 kts 122°
2026-05-05 18:03 54.12582 0.92845 36994 ft 477 kts 121°
2026-05-05 18:04 54.09302 1.02673 36992 ft 477 kts 122°
2026-05-05 18:04 54.06020 1.12469 36993 ft 476 kts 122°
2026-05-05 18:05 54.02732 1.22244 36993 ft 476 kts 122°
2026-05-05 18:05 53.99435 1.32003 36987 ft 476 kts 122°
2026-05-05 18:06 53.96135 1.41737 36988 ft 476 kts 122°
2026-05-05 18:06 53.92824 1.51462 36982 ft 476 kts 122°
2026-05-05 18:07 53.89529 1.61102 36981 ft 476 kts 122°
2026-05-05 18:07 53.86203 1.70797 36980 ft 477 kts 123°
2026-05-05 18:08 53.82863 1.80492 36981 ft 477 kts 123°
2026-05-05 18:08 53.79510 1.90186 36978 ft 477 kts 123°
2026-05-05 18:09 53.76157 1.99844 36977 ft 476 kts 123°
2026-05-05 18:09 53.72795 2.09490 36966 ft 476 kts 123°
2026-05-05 18:10 53.69426 2.19118 36967 ft 477 kts 123°
2026-05-05 18:10 53.66048 2.28736 36961 ft 476 kts 123°
2026-05-05 18:11 53.63213 2.36779 36962 ft 476 kts 123°
2026-05-05 18:11 53.59820 2.46367 36960 ft 476 kts 123°
2026-05-05 18:12 53.56423 2.55932 36958 ft 476 kts 123°
2026-05-05 18:12 53.53018 2.65483 36957 ft 476 kts 124°
2026-05-05 18:13 53.49601 2.75029 36956 ft 477 kts 124°
2026-05-05 18:13 53.46199 2.84498 36955 ft 476 kts 124°
2026-05-05 18:14 53.42773 2.93999 36954 ft 476 kts 124°
2026-05-05 18:14 53.39335 3.03496 36955 ft 476 kts 124°
2026-05-05 18:15 53.35895 3.12962 36958 ft 476 kts 124°
2026-05-05 18:15 53.32449 3.22410 36959 ft 475 kts 124°
2026-05-05 18:16 53.28995 3.31844 36965 ft 475 kts 125°
2026-05-05 18:16 53.25507 3.41212 36962 ft 474 kts 128°
2026-05-05 18:17 53.21374 3.49697 36970 ft 470 kts 134°
2026-05-05 18:17 53.17057 3.57873 36949 ft 468 kts 135°
2026-05-05 18:18 53.12744 3.65927 36972 ft 464 kts 135°
2026-05-05 18:18 53.08449 3.73930 36959 ft 463 kts 135°
2026-05-05 18:19 53.04160 3.81921 36958 ft 463 kts 135°
2026-05-05 18:19 52.99868 3.89903 36951 ft 463 kts 135°
2026-05-05 18:20 52.95574 3.97866 36951 ft 463 kts 135°
2026-05-05 18:20 52.91279 4.05807 36931 ft 462 kts 135°
2026-05-05 18:21 52.86993 4.13705 36938 ft 460 kts 135°
2026-05-05 18:21 52.82709 4.21571 36938 ft 460 kts 135°
2026-05-05 18:22 52.78422 4.29419 36930 ft 460 kts 135°
2026-05-05 18:22 52.74132 4.37251 36931 ft 460 kts 135°
2026-05-05 18:23 52.69908 4.45183 36922 ft 460 kts 134°
2026-05-05 18:23 52.65713 4.53166 36920 ft 460 kts 134°
2026-05-05 18:24 52.61536 4.61065 36917 ft 459 kts 134°
2026-05-05 18:24 52.57350 4.68923 36910 ft 459 kts 134°
2026-05-05 18:25 52.53108 4.76849 36910 ft 459 kts 134°
2026-05-05 18:25 52.48914 4.84660 36912 ft 459 kts 134°
2026-05-05 18:26 52.44692 4.92501 36908 ft 459 kts 134°
2026-05-05 18:26 52.40435 5.00383 36905 ft 459 kts 134°
2026-05-05 18:27 52.36197 5.08203 36905 ft 460 kts 134°
2026-05-05 18:27 52.31971 5.15980 36900 ft 460 kts 134°
2026-05-05 18:28 52.25592 5.27670 36901 ft 460 kts 135°
2026-05-05 18:28 52.21326 5.35457 36897 ft 460 kts 135°
2026-05-05 18:29 52.17117 5.43119 36884 ft 459 kts 135°
2026-05-05 18:29 52.12849 5.50862 36888 ft 458 kts 135°
2026-05-05 18:30 52.08594 5.58559 36899 ft 457 kts 135°
2026-05-05 18:30 52.04342 5.66226 36881 ft 457 kts 135°
2026-05-05 18:31 52.00080 5.73885 36880 ft 457 kts 135°
2026-05-05 18:31 51.95815 5.81528 36875 ft 457 kts 135°
2026-05-05 18:32 51.91548 5.89153 36857 ft 457 kts 135°
2026-05-05 18:32 51.87284 5.96751 36871 ft 455 kts 135°
2026-05-05 18:33 51.83034 6.04299 36871 ft 453 kts 135°
2026-05-05 18:33 51.78779 6.11828 36868 ft 453 kts 135°
2026-05-05 18:34 51.74526 6.19334 36864 ft 453 kts 135°
2026-05-05 18:34 51.70270 6.26823 36861 ft 453 kts 135°
2026-05-05 18:35 51.66008 6.34302 36858 ft 452 kts 136°
2026-05-05 18:35 51.62167 6.41021 36857 ft 452 kts 135°
2026-05-05 18:36 51.57916 6.48439 36860 ft 451 kts 135°
2026-05-05 18:36 51.53661 6.55841 36856 ft 450 kts 135°
2026-05-05 18:37 51.49407 6.63217 36856 ft 450 kts 135°
2026-05-05 18:37 51.45143 6.70589 36855 ft 450 kts 136°
2026-05-05 18:38 51.40881 6.77937 36848 ft 450 kts 136°
2026-05-05 18:38 51.36612 6.85274 36851 ft 450 kts 136°
2026-05-05 18:39 51.32341 6.92603 36831 ft 449 kts 136°
2026-05-05 18:39 51.28075 6.99893 36830 ft 449 kts 136°
2026-05-05 18:40 51.23806 7.07162 36832 ft 449 kts 136°
2026-05-05 18:40 51.19534 7.14418 36810 ft 449 kts 136°
2026-05-05 18:41 51.15254 7.21668 36727 ft 449 kts 136°
2026-05-05 18:41 51.13115 7.25285 36463 ft 448 kts 136°
2026-05-05 18:41 51.10979 7.28891 36215 ft 447 kts 136°
2026-05-05 18:42 51.08863 7.32460 35964 ft 441 kts 135°
2026-05-05 18:42 51.06780 7.35973 35826 ft 432 kts 135°
2026-05-05 18:42 51.02623 7.42955 35824 ft 440 kts 136°
2026-05-05 18:43 50.98407 7.50007 35822 ft 442 kts 136°
2026-05-05 18:43 50.94172 7.57080 35614 ft 437 kts 136°
2026-05-05 18:44 50.92093 7.60549 35360 ft 432 kts 136°
2026-05-05 18:44 50.90061 7.63934 35117 ft 428 kts 136°
2026-05-05 18:44 50.87982 7.67390 34892 ft 427 kts 136°
2026-05-05 18:44 50.85986 7.70702 34813 ft 426 kts 136°
2026-05-05 18:45 50.81868 7.77463 34813 ft 430 kts 137°
2026-05-05 18:45 50.77478 7.84003 34808 ft 435 kts 139°
2026-05-05 18:46 50.73083 7.90614 34805 ft 436 kts 137°
2026-05-05 18:46 50.68762 7.97347 34789 ft 436 kts 137°
2026-05-05 18:47 50.64440 8.04039 34802 ft 435 kts 137°
2026-05-05 18:47 50.60103 8.10689 34821 ft 435 kts 138°
2026-05-05 18:48 50.55754 8.17319 34826 ft 435 kts 137°
2026-05-05 18:48 50.51405 8.23930 34820 ft 435 kts 137°
2026-05-05 18:49 50.47051 8.30533 34824 ft 435 kts 137°
2026-05-05 18:49 50.42704 8.37110 34813 ft 434 kts 138°
2026-05-05 18:50 50.38349 8.43681 34821 ft 434 kts 138°
2026-05-05 18:50 50.33988 8.50243 34821 ft 434 kts 138°
2026-05-05 18:51 50.29632 8.56779 34815 ft 435 kts 137°
2026-05-05 18:51 50.25259 8.63324 34812 ft 435 kts 137°
2026-05-05 18:52 50.20856 8.69898 34809 ft 435 kts 138°
2026-05-05 18:52 50.17243 8.75277 34809 ft 435 kts 138°
2026-05-05 18:53 50.12849 8.81805 34809 ft 435 kts 138°
2026-05-05 18:53 50.08463 8.88302 34810 ft 435 kts 138°
2026-05-05 18:54 50.04078 8.94780 34816 ft 436 kts 138°
2026-05-05 18:54 49.99671 9.01273 34819 ft 437 kts 138°
2026-05-05 18:55 49.95255 9.07764 34826 ft 437 kts 138°
2026-05-05 18:55 49.90869 9.14194 34820 ft 437 kts 138°
2026-05-05 18:56 49.86447 9.20660 34835 ft 437 kts 138°
2026-05-05 18:56 49.81997 9.27147 34838 ft 437 kts 138°
2026-05-05 18:57 49.77556 9.33605 34833 ft 439 kts 138°
2026-05-05 18:57 49.73121 9.40038 34834 ft 440 kts 138°
2026-05-05 18:58 49.68623 9.46545 34835 ft 440 kts 138°
2026-05-05 18:58 49.64148 9.53002 34829 ft 440 kts 139°
2026-05-05 18:59 49.59706 9.59393 34833 ft 439 kts 139°
2026-05-05 18:59 49.55206 9.65851 34834 ft 440 kts 139°
2026-05-05 19:00 49.53004 9.69007 34680 ft 435 kts 139°
2026-05-05 19:00 49.50777 9.72196 34220 ft 431 kts 139°
2026-05-05 19:00 49.48592 9.75318 33600 ft 425 kts 138°
2026-05-05 19:00 49.46456 9.78367 32632 ft 424 kts 138°
2026-05-05 19:01 49.44294 9.81447 31363 ft 424 kts 138°
2026-05-05 19:01 49.42110 9.84554 30349 ft 426 kts 138°
2026-05-05 19:01 49.39983 9.87578 29943 ft 420 kts 139°
2026-05-05 19:01 49.37827 9.90640 29500 ft 414 kts 139°
2026-05-05 19:02 49.35724 9.93622 29071 ft 408 kts 139°
2026-05-05 19:02 49.33654 9.96555 28664 ft 402 kts 139°
2026-05-05 19:02 49.31617 9.99438 28263 ft 396 kts 139°
2026-05-05 19:02 49.29640 10.02233 27862 ft 393 kts 139°
2026-05-05 19:03 49.27630 10.05071 27465 ft 394 kts 139°
2026-05-05 19:03 49.25616 10.07906 27073 ft 393 kts 139°
2026-05-05 19:03 49.23603 10.10739 26658 ft 391 kts 139°
2026-05-05 19:03 49.21606 10.13546 26259 ft 389 kts 139°
2026-05-05 19:04 49.19617 10.16340 25861 ft 387 kts 139°
2026-05-05 19:04 49.17622 10.19138 25533 ft 395 kts 139°
2026-05-05 19:04 49.15568 10.22011 25297 ft 405 kts 139°
2026-05-05 19:04 49.13504 10.24906 25049 ft 406 kts 139°
2026-05-05 19:05 49.11495 10.27938 24877 ft 407 kts 136°
2026-05-05 19:05 49.09560 10.31077 24864 ft 407 kts 135°
2026-05-05 19:05 49.07675 10.34212 24866 ft 407 kts 135°
2026-05-05 19:05 49.05764 10.37392 24867 ft 406 kts 135°
2026-05-05 19:06 49.03821 10.40591 24860 ft 406 kts 135°
2026-05-05 19:06 49.01918 10.43691 24687 ft 402 kts 135°
2026-05-05 19:06 49.00001 10.46788 24121 ft 401 kts 136°
2026-05-05 19:06 48.98128 10.49792 23543 ft 400 kts 136°
2026-05-05 19:07 48.96206 10.52853 22951 ft 399 kts 136°
2026-05-05 19:07 48.94349 10.55801 22365 ft 396 kts 136°
2026-05-05 19:07 48.92445 10.58822 21781 ft 394 kts 136°
2026-05-05 19:07 48.90663 10.61652 21185 ft 392 kts 136°
2026-05-05 19:08 48.88785 10.64636 20631 ft 390 kts 136°
2026-05-05 19:08 48.86919 10.67596 20091 ft 387 kts 136°
2026-05-05 19:08 48.85066 10.70530 19669 ft 381 kts 136°
2026-05-05 19:08 48.83588 10.72869 19407 ft 374 kts 136°
2026-05-05 19:09 48.81816 10.75671 19004 ft 369 kts 136°
2026-05-05 19:09 48.80114 10.78363 18548 ft 367 kts 136°
2026-05-05 19:09 48.78392 10.81077 18136 ft 364 kts 136°
2026-05-05 19:09 48.76824 10.83536 17977 ft 362 kts 136°
2026-05-05 19:10 48.75136 10.86175 17824 ft 363 kts 136°
2026-05-05 19:10 48.73485 10.88752 17576 ft 362 kts 136°
2026-05-05 19:10 48.72131 10.90868 17291 ft 362 kts 136°
2026-05-05 19:10 48.71073 10.92519 16834 ft 365 kts 136°
2026-05-05 19:11 48.69391 10.95145 16350 ft 362 kts 137°
2026-05-05 19:11 48.68276 10.96893 16106 ft 358 kts 137°
2026-05-05 19:11 48.66933 10.99352 15664 ft 358 kts 128°
2026-05-05 19:11 48.65576 11.02501 15150 ft 357 kts 124°
2026-05-05 19:12 48.64334 11.05737 14786 ft 352 kts 122°
2026-05-05 19:12 48.63177 11.08947 14493 ft 344 kts 121°
2026-05-05 19:12 48.62057 11.12118 14089 ft 340 kts 121°
2026-05-05 19:12 48.60948 11.15259 13631 ft 338 kts 122°
2026-05-05 19:13 48.59833 11.18382 13112 ft 336 kts 122°
2026-05-05 19:13 48.58718 11.21475 12596 ft 335 kts 122°
2026-05-05 19:13 48.57638 11.24447 12103 ft 333 kts 122°
2026-05-05 19:13 48.56553 11.27418 11711 ft 328 kts 122°
2026-05-05 19:14 48.55483 11.30343 11513 ft 317 kts 122°
2026-05-05 19:14 48.54433 11.33212 11246 ft 309 kts 123°
2026-05-05 19:14 48.53399 11.36028 10923 ft 304 kts 123°
2026-05-05 19:14 48.52373 11.38813 10816 ft 304 kts 123°
2026-05-05 19:15 48.51371 11.41525 10829 ft 304 kts 123°
2026-05-05 19:15 48.50343 11.44308 10822 ft 304 kts 122°
2026-05-05 19:15 48.49315 11.47093 10829 ft 303 kts 122°
2026-05-05 19:15 48.48289 11.49868 10828 ft 303 kts 122°
2026-05-05 19:16 48.47264 11.52640 10830 ft 303 kts 122°
2026-05-05 19:16 48.46234 11.55424 10829 ft 303 kts 122°
2026-05-05 19:16 48.45210 11.58202 10760 ft 304 kts 122°
2026-05-05 19:16 48.44380 11.61146 10367 ft 307 kts 109°
2026-05-05 19:17 48.44022 11.64256 9972 ft 308 kts 94°
2026-05-05 19:17 48.44114 11.67475 9538 ft 308 kts 86°
2026-05-05 19:17 48.44341 11.70668 9106 ft 306 kts 85°
2026-05-05 19:17 48.44585 11.73812 8858 ft 297 kts 84°
2026-05-05 19:18 48.44821 11.76840 8706 ft 286 kts 84°
2026-05-05 19:18 48.45048 11.79774 8453 ft 278 kts 85°
2026-05-05 19:18 48.45267 11.82640 8190 ft 272 kts 84°
2026-05-05 19:18 48.45481 11.85439 7973 ft 266 kts 84°
2026-05-05 19:19 48.45689 11.88176 7673 ft 262 kts 84°
2026-05-05 19:19 48.45894 11.90896 7330 ft 261 kts 84°
2026-05-05 19:19 48.46099 11.93608 6989 ft 260 kts 84°
2026-05-05 19:19 48.46302 11.96308 6733 ft 259 kts 84°
2026-05-05 19:20 48.46503 11.99007 6618 ft 260 kts 84°
2026-05-05 19:20 48.46691 12.01511 6487 ft 260 kts 84°
2026-05-05 19:20 48.46892 12.04212 6376 ft 260 kts 84°
2026-05-05 19:20 48.47084 12.06810 6273 ft 259 kts 84°
2026-05-05 19:21 48.47273 12.09363 6149 ft 259 kts 84°
2026-05-05 19:21 48.47437 12.12060 6012 ft 258 kts 89°
2026-05-05 19:21 48.47048 12.14642 5876 ft 249 kts 120°
2026-05-05 19:21 48.46080 12.16360 5700 ft 235 kts 148°
2026-05-05 19:22 48.44643 12.17262 5658 ft 215 kts 170°
2026-05-05 19:22 48.43234 12.17690 5644 ft 201 kts 173°
2026-05-05 19:22 48.41858 12.17839 5598 ft 197 kts 193°
2026-05-05 19:22 48.40840 12.17142 5582 ft 189 kts 223°
2026-05-05 19:23 48.39936 12.15725 5577 ft 186 kts 232°
2026-05-05 19:23 48.39342 12.14017 5563 ft 185 kts 253°
2026-05-05 19:23 48.39045 12.12142 5426 ft 184 kts 261°
2026-05-05 19:23 48.38862 12.10258 5208 ft 181 kts 263°
2026-05-05 19:24 48.38704 12.08379 4930 ft 180 kts 264°
2026-05-05 19:24 48.38558 12.06515 4659 ft 179 kts 264°
2026-05-05 19:24 48.38414 12.04665 4408 ft 178 kts 265°
2026-05-05 19:24 48.38271 12.02818 4169 ft 177 kts 265°
2026-05-05 19:25 48.38130 12.00981 3928 ft 175 kts 265°
2026-05-05 19:25 48.37993 11.99198 3700 ft 169 kts 265°
2026-05-05 19:25 48.37860 11.97465 3475 ft 164 kts 265°
2026-05-05 19:25 48.37734 11.95820 3268 ft 158 kts 265°
2026-05-05 19:26 48.37611 11.94225 3067 ft 149 kts 265°
2026-05-05 19:26 48.37498 11.92749 2870 ft 137 kts 265°
2026-05-05 19:26 48.37392 11.91372 2703 ft 130 kts 265°
2026-05-05 19:26 48.37291 11.90022 2526 ft 130 kts 265°
2026-05-05 19:27 48.37188 11.88667 2352 ft 131 kts 264°
2026-05-05 19:27 48.37083 11.87294 2195 ft 133 kts 264°
2026-05-05 19:27 48.36982 11.85910 2003 ft 133 kts 265°
2026-05-05 19:27 48.36871 11.84521 1833 ft 134 kts 262°
2026-05-05 19:28 48.36760 11.83120 1664 ft 136 kts 264°
2026-05-05 19:28 48.36654 11.81707 1511 ft 136 kts 263°
2026-05-05 19:28 48.36556 11.80397 1476 ft 110 kts 263°
2026-05-05 19:28 48.36497 11.79644 1481 ft 52 kts 263°
2026-05-05 19:29 48.36461 11.79191 1483 ft 33 kts 261°
2026-05-05 19:29 48.36404 11.78939 1480 ft 25 kts 243°
2026-05-05 19:29 48.36305 11.78722 1481 ft 24 kts 234°
2026-05-05 19:29 48.36218 11.78545 1479 ft 15 kts 226°
2026-05-05 19:30 48.36118 11.78480 1477 ft 17 kts 181°
2026-05-05 19:30 48.36041 11.78533 1478 ft 10 kts 108°
2026-05-05 19:30 48.36042 11.78649 1492 ft 12 kts 85°
2026-05-05 19:30 48.36052 11.78794 1482 ft 15 kts 83°
2026-05-05 19:31 48.36065 11.78964 1479 ft 18 kts 83°
2026-05-05 19:31 48.36080 11.79153 1483 ft 15 kts 83°
2026-05-05 19:31 48.36087 11.79248 1483 ft 9 kts 87°
2026-05-05 19:31 48.36052 11.79316 1479 ft 8 kts 158°
2026-05-05 19:32 48.36012 11.79328 1479 ft 3 kts 172°
2026-05-05 19:32 48.35980 11.79335 1483 ft 6 kts 172°
2026-05-05 19:32 48.35931 11.79359 1476 ft 9 kts 148°
2026-05-05 19:32 48.35906 11.79445 1479 ft 10 kts 99°
2026-05-05 19:33 48.35854 11.79517 1476 ft 11 kts 166°
2026-05-05 19:33 48.35765 11.79536 1481 ft 14 kts 174°
2026-05-05 19:33 48.35661 11.79554 1481 ft 16 kts 173°
2026-05-05 19:33 48.35565 11.79571 1479 ft 11 kts 173°
2026-05-05 19:34 48.35496 11.79583 1484 ft 8 kts 173°
2026-05-05 19:34 48.35470 11.79605 1476 ft 3 kts 121°
2026-05-05 19:34 48.35465 11.79655 1481 ft 7 kts 90°
2026-05-05 19:35 48.35469 11.79734 1481 ft 1 kts 84°